ibnlokmat.tv alexa rank chart, ibnlokmat.tv alexa rank daily changes

ibnlokmat.tv alexa rank chart, ibnlokmat.tv alexa rank daily changes

ibnlokmat.tv
Actual rank:
32 568

RANK HISTORY

Date Rank Diff
2017/03/23 32 568 +320
2017/03/22 32 248 +62
2017/03/21 32 186 +274
2017/03/19 31 912 +120
2017/03/18 31 792 -161
2017/03/17 31 953 -136
2017/03/16 32 089 +278
2017/03/15 31 811 +142
2017/03/14 31 669 -2
2017/03/13 31 671 -1 240
2017/03/12 32 911 -114
2017/03/11 33 025 -161
2017/03/10 33 186 +33
2017/03/09 33 153 +29
2017/03/08 33 124 +469
2017/03/07 32 655 +339
2017/03/06 32 316 -100
2017/03/01 32 416 -1 800
2017/02/28 34 216 -297
2017/02/27 34 513 -988
2017/02/26 35 501 -979
2017/02/25 36 480 -25 604
2017/02/24 62 084 -2 340
2017/02/23 64 424 -1 993
2017/02/22 66 417 -316
2017/02/21 66 733 -443
2017/02/20 67 176 -650
2017/02/19 67 826 -259
2017/02/18 68 085 -180
2017/02/17 68 265 -1 110
2017/02/16 69 375 -1 556
2017/02/15 70 931 -1 432
2017/02/14 72 363 +44
2017/02/13 72 319 -44
2017/02/12 72 363 -921
2017/02/11 73 284 +373
2017/02/10 72 911 -2 870
2017/02/09 75 781 -1 105
2017/02/08 76 886 -2 470
2017/02/07 79 356 +353
2017/02/06 79 003 +24
2017/02/05 78 979 +297
2017/02/04 78 682 -1 553
2017/02/03 80 235 -3 461
2017/02/02 83 696 +465
2017/02/01 83 231 +353
2017/01/31 82 878 +517
2017/01/30 82 361 -296
2017/01/29 82 657 +30
2017/01/28 82 627 +1 228
2017/01/27 81 399 +714
2017/01/26 80 685 +2 431
2017/01/25 78 254 +758
2017/01/24 77 496 +1 506
2017/01/23 75 990 -42
2017/01/22 76 032

WIDGET FOR YOUR SITE

DOMAINS WITH THE NEAREST RANK

Domain Rank
tinymovies50.top 32 563
smiteplaybackpro.com 32 564
otempo.com.br 32 565
kumparan.com 32 566
glavkniga.ru 32 567
ibnlokmat.tv 32 568
lockheedmartinjobs.com 32 569
diariodocentrodomundo.com.br 32 570
goole.com 32 571
zte.com.cn 32 572
delo.si 32 573

DOMAINS WITH THE NEAREST RANK BY TLD .tv

Domain Rank
animedia.tv 31 605
up3.tv 31 738
videowood.tv 31 866
bgm.tv 31 876
steephill.tv 32 054
ibnlokmat.tv 32 568
darkville.tv 32 659
sny.tv 32 799
ome.tv 32 828
naruspot.tv 32 847
dewamovie.tv 32 852